WPF的简单抽奖程序修正版源码.zip
下载
wpf 源码 程序
查看(6)

所属分类:开发技术 > C#
文件大小:11.15 MB
上传日期:2019/7/13 16:57:21
MD5:dddfac8492************df59a4f692
资源说明:WPF的简单抽奖程序修正版源码,程序介绍:WPF编写的抽奖程序。此版本在WPF的简单抽奖程序源码基础上添加了背景音乐,添加了关闭程序,当点击暂停的时候,添加了欢呼声,添加了一些动画等等!并修正之前点击停止后结果不能停止的现象。
移动页面: MIP AMP

[资源合计] 文件夹:16,文件:72

# 文件名称 大小 最后修改时间
1 51aspx_WPFallahfan72053603-f2ac-4028-a88f-2d23781d0826 0 Bytes 2012/2/13 11:51:22
2 51aspx_WPFallahfan72053603-f2ac-4028-a88f-2d23781d0826\App.xaml 286 Bytes 2012/1/17 16:22:52
3 51aspx_WPFallahfan72053603-f2ac-4028-a88f-2d23781d0826\App.xaml.cs 301 Bytes 2012/1/17 16:22:52
4 51aspx_WPFallahfan72053603-f2ac-4028-a88f-2d23781d0826\background.jpg 630.14 KB 2012/1/17 16:22:52
5 51aspx_WPFallahfan72053603-f2ac-4028-a88f-2d23781d0826\beijingmusic (2).mp3 3.98 MB 2012/1/17 16:22:52
6 51aspx_WPFallahfan72053603-f2ac-4028-a88f-2d23781d0826\bin 0 Bytes 2012/2/13 11:49:33
7 51aspx_WPFallahfan72053603-f2ac-4028-a88f-2d23781d0826\bin\Debug 0 Bytes 2012/2/13 11:49:33
8 51aspx_WPFallahfan72053603-f2ac-4028-a88f-2d23781d0826\bin\Debug\beijingmusic (2).mp3 3.98 MB 2012/1/17 16:22:52
9 51aspx_WPFallahfan72053603-f2ac-4028-a88f-2d23781d0826\bin\Debug\Data.xml 979 Bytes 2012/1/17 16:22:56
10 51aspx_WPFallahfan72053603-f2ac-4028-a88f-2d23781d0826\bin\Debug\de 0 Bytes 2012/2/13 11:49:33
11 51aspx_WPFallahfan72053603-f2ac-4028-a88f-2d23781d0826\bin\Debug\de\Microsoft.Expression.Interactions.resources.dll 5 KB 2012/1/17 16:22:58
12 51aspx_WPFallahfan72053603-f2ac-4028-a88f-2d23781d0826\bin\Debug\de\System.Windows.Interactivity.resources.dll 6.5 KB 2012/1/17 16:22:58
13 51aspx_WPFallahfan72053603-f2ac-4028-a88f-2d23781d0826\bin\Debug\en 0 Bytes 2012/2/13 11:49:33
14 51aspx_WPFallahfan72053603-f2ac-4028-a88f-2d23781d0826\bin\Debug\en\Microsoft.Expression.Interactions.resources.dll 5.5 KB 2012/1/17 16:22:58
15 51aspx_WPFallahfan72053603-f2ac-4028-a88f-2d23781d0826\bin\Debug\en\System.Windows.Interactivity.resources.dll 7 KB 2012/1/17 16:22:58
16 51aspx_WPFallahfan72053603-f2ac-4028-a88f-2d23781d0826\bin\Debug\es 0 Bytes 2012/2/13 11:49:33
17 51aspx_WPFallahfan72053603-f2ac-4028-a88f-2d23781d0826\bin\Debug\es\Microsoft.Expression.Interactions.resources.dll 5 KB 2012/1/17 16:22:58
18 51aspx_WPFallahfan72053603-f2ac-4028-a88f-2d23781d0826\bin\Debug\es\System.Windows.Interactivity.resources.dll 6.5 KB 2012/1/17 16:22:58
19 51aspx_WPFallahfan72053603-f2ac-4028-a88f-2d23781d0826\bin\Debug\fr 0 Bytes 2012/2/13 11:49:33
20 51aspx_WPFallahfan72053603-f2ac-4028-a88f-2d23781d0826\bin\Debug\fr\Microsoft.Expression.Interactions.resources.dll 5 KB 2012/1/17 16:22:58
21 51aspx_WPFallahfan72053603-f2ac-4028-a88f-2d23781d0826\bin\Debug\fr\System.Windows.Interactivity.resources.dll 6.5 KB 2012/1/17 16:22:58
22 51aspx_WPFallahfan72053603-f2ac-4028-a88f-2d23781d0826\bin\Debug\huanhusheng.mp3 68.6 KB 2012/1/17 16:22:56
23 51aspx_WPFallahfan72053603-f2ac-4028-a88f-2d23781d0826\bin\Debug\it 0 Bytes 2012/2/13 11:49:33
24 51aspx_WPFallahfan72053603-f2ac-4028-a88f-2d23781d0826\bin\Debug\it\Microsoft.Expression.Interactions.resources.dll 5 KB 2012/1/17 16:22:58
25 51aspx_WPFallahfan72053603-f2ac-4028-a88f-2d23781d0826\bin\Debug\it\System.Windows.Interactivity.resources.dll 6.5 KB 2012/1/17 16:22:58
26 51aspx_WPFallahfan72053603-f2ac-4028-a88f-2d23781d0826\bin\Debug\ja 0 Bytes 2012/2/13 11:49:33
27 51aspx_WPFallahfan72053603-f2ac-4028-a88f-2d23781d0826\bin\Debug\ja\Microsoft.Expression.Interactions.resources.dll 5 KB 2012/1/17 16:22:58
28 51aspx_WPFallahfan72053603-f2ac-4028-a88f-2d23781d0826\bin\Debug\ja\System.Windows.Interactivity.resources.dll 7 KB 2012/1/17 16:22:58
29 51aspx_WPFallahfan72053603-f2ac-4028-a88f-2d23781d0826\bin\Debug\ko 0 Bytes 2012/2/13 11:49:33
30 51aspx_WPFallahfan72053603-f2ac-4028-a88f-2d23781d0826\bin\Debug\ko\Microsoft.Expression.Interactions.resources.dll 5 KB 2012/1/17 16:22:58
31 51aspx_WPFallahfan72053603-f2ac-4028-a88f-2d23781d0826\bin\Debug\ko\System.Windows.Interactivity.resources.dll 6.5 KB 2012/1/17 16:22:58
32 51aspx_WPFallahfan72053603-f2ac-4028-a88f-2d23781d0826\bin\Debug\Microsoft.Expression.Interactions.dll 64 KB 2012/1/17 16:22:56
33 51aspx_WPFallahfan72053603-f2ac-4028-a88f-2d23781d0826\bin\Debug\Microsoft.Expression.Interactions.xml 41.73 KB 2012/1/17 16:22:56
34 51aspx_WPFallahfan72053603-f2ac-4028-a88f-2d23781d0826\bin\Debug\System.Windows.Interactivity.dll 44 KB 2012/1/17 16:22:56
35 51aspx_WPFallahfan72053603-f2ac-4028-a88f-2d23781d0826\bin\Debug\System.Windows.Interactivity.xml 56.72 KB 2012/1/17 16:22:56
36 51aspx_WPFallahfan72053603-f2ac-4028-a88f-2d23781d0826\bin\Debug\WpfCJ.application 1.58 KB 2012/1/17 16:22:56
37 51aspx_WPFallahfan72053603-f2ac-4028-a88f-2d23781d0826\bin\Debug\WpfCJ.exe 706 KB 2012/1/17 16:22:56
38 51aspx_WPFallahfan72053603-f2ac-4028-a88f-2d23781d0826\bin\Debug\WpfCJ.exe.manifest 13.27 KB 2012/1/17 16:22:56
39 51aspx_WPFallahfan72053603-f2ac-4028-a88f-2d23781d0826\bin\Debug\WpfCJ.pdb 33.5 KB 2012/1/17 16:22:56
40 51aspx_WPFallahfan72053603-f2ac-4028-a88f-2d23781d0826\bin\Debug\WpfCJ.vshost.application 1.58 KB 2012/1/17 16:22:56
41 51aspx_WPFallahfan72053603-f2ac-4028-a88f-2d23781d0826\bin\Debug\WpfCJ.vshost.exe 11.34 KB 2012/1/17 16:22:56
42 51aspx_WPFallahfan72053603-f2ac-4028-a88f-2d23781d0826\bin\Debug\WpfCJ.vshost.exe.manifest 13.27 KB 2012/1/17 16:22:56
43 51aspx_WPFallahfan72053603-f2ac-4028-a88f-2d23781d0826\bin\Debug\WPFToolkit.dll 456.34 KB 2012/1/17 16:22:56
44 51aspx_WPFallahfan72053603-f2ac-4028-a88f-2d23781d0826\bin\Debug\WPFToolkit.pdb 1.16 MB 2012/1/17 16:22:56
45 51aspx_WPFallahfan72053603-f2ac-4028-a88f-2d23781d0826\bin\Debug\zh-Hans 0 Bytes 2012/2/13 11:49:33
46 51aspx_WPFallahfan72053603-f2ac-4028-a88f-2d23781d0826\bin\Debug\zh-Hans\Microsoft.Expression.Interactions.resources.dll 5 KB 2012/1/17 16:22:58
47 51aspx_WPFallahfan72053603-f2ac-4028-a88f-2d23781d0826\bin\Debug\zh-Hans\System.Windows.Interactivity.resources.dll 6.5 KB 2012/1/17 16:22:58
48 51aspx_WPFallahfan72053603-f2ac-4028-a88f-2d23781d0826\bin\Debug\zh-Hant 0 Bytes 2012/2/13 11:49:33
49 51aspx_WPFallahfan72053603-f2ac-4028-a88f-2d23781d0826\bin\Debug\zh-Hant\Microsoft.Expression.Interactions.resources.dll 5 KB 2012/1/17 16:22:58
50 51aspx_WPFallahfan72053603-f2ac-4028-a88f-2d23781d0826\bin\Debug\zh-Hant\System.Windows.Interactivity.resources.dll 6.5 KB 2012/1/17 16:22:58
51 51aspx_WPFallahfan72053603-f2ac-4028-a88f-2d23781d0826\Data.xml 979 Bytes 2012/1/17 16:22:52
52 51aspx_WPFallahfan72053603-f2ac-4028-a88f-2d23781d0826\huanhusheng.mp3 68.6 KB 2012/1/17 16:22:52
53 51aspx_WPFallahfan72053603-f2ac-4028-a88f-2d23781d0826\logo png.png 55.35 KB 2012/1/17 16:22:52
54 51aspx_WPFallahfan72053603-f2ac-4028-a88f-2d23781d0826\obj 0 Bytes 2012/2/13 11:49:33
55 51aspx_WPFallahfan72053603-f2ac-4028-a88f-2d23781d0826\obj\Debug 0 Bytes 2012/2/13 11:49:33
56 51aspx_WPFallahfan72053603-f2ac-4028-a88f-2d23781d0826\obj\Debug\App.g.cs 2 KB 2012/1/17 16:22:58
57 51aspx_WPFallahfan72053603-f2ac-4028-a88f-2d23781d0826\obj\Debug\DesignTimeResolveAssemblyReferences.cache 9.86 KB 2012/1/17 16:22:58
58 51aspx_WPFallahfan72053603-f2ac-4028-a88f-2d23781d0826\obj\Debug\DesignTimeResolveAssemblyReferencesInput.cache 6.81 KB 2012/1/17 16:22:58
59 51aspx_WPFallahfan72053603-f2ac-4028-a88f-2d23781d0826\obj\Debug\GenerateResource-ResGen.read.1.tlog 4.79 KB 2012/1/17 16:22:58
60 51aspx_WPFallahfan72053603-f2ac-4028-a88f-2d23781d0826\obj\Debug\GenerateResource-ResGen.write.1.tlog 318 Bytes 2012/1/17 16:22:58
61 51aspx_WPFallahfan72053603-f2ac-4028-a88f-2d23781d0826\obj\Debug\TempPE 0 Bytes 2012/2/13 11:49:33
62 51aspx_WPFallahfan72053603-f2ac-4028-a88f-2d23781d0826\obj\Debug\TempPE\Properties.Resources.Designer.cs.dll 4.5 KB 2012/1/17 16:22:58
63 51aspx_WPFallahfan72053603-f2ac-4028-a88f-2d23781d0826\obj\Debug\Window1.baml 8.66 KB 2012/1/17 16:22:58
64 51aspx_WPFallahfan72053603-f2ac-4028-a88f-2d23781d0826\obj\Debug\Window1.g.cs 6.32 KB 2012/1/17 16:22:58
65 51aspx_WPFallahfan72053603-f2ac-4028-a88f-2d23781d0826\obj\Debug\WpfCJ.application 1.58 KB 2012/1/17 16:22:58
66 51aspx_WPFallahfan72053603-f2ac-4028-a88f-2d23781d0826\obj\Debug\WpfCJ.csproj.FileListAbsolute.txt 12.09 KB 2012/1/17 16:22:58
67 51aspx_WPFallahfan72053603-f2ac-4028-a88f-2d23781d0826\obj\Debug\WpfCJ.csproj.GenerateResource.Cache 789 Bytes 2012/1/17 16:22:58
68 51aspx_WPFallahfan72053603-f2ac-4028-a88f-2d23781d0826\obj\Debug\WpfCJ.exe 706 KB 2012/1/17 16:22:58
69 51aspx_WPFallahfan72053603-f2ac-4028-a88f-2d23781d0826\obj\Debug\WpfCJ.exe.manifest 13.27 KB 2012/1/17 16:22:58
70 51aspx_WPFallahfan72053603-f2ac-4028-a88f-2d23781d0826\obj\Debug\WpfCJ.g.resources 694.46 KB 2012/1/17 16:22:58
71 51aspx_WPFallahfan72053603-f2ac-4028-a88f-2d23781d0826\obj\Debug\WpfCJ.pdb 33.5 KB 2012/1/17 16:22:58
72 51aspx_WPFallahfan72053603-f2ac-4028-a88f-2d23781d0826\obj\Debug\WpfCJ.Properties.Resources.resources 180 Bytes 2012/1/17 16:22:58
73 51aspx_WPFallahfan72053603-f2ac-4028-a88f-2d23781d0826\obj\Debug\WpfCJ_Content.g.cs 698 Bytes 2012/1/17 16:22:58
74 51aspx_WPFallahfan72053603-f2ac-4028-a88f-2d23781d0826\obj\Debug\WpfCJ_MarkupCompile.cache 311 Bytes 2012/1/17 16:22:58
75 51aspx_WPFallahfan72053603-f2ac-4028-a88f-2d23781d0826\Properties 0 Bytes 2012/2/13 11:49:34
76 51aspx_WPFallahfan72053603-f2ac-4028-a88f-2d23781d0826\Properties\AssemblyInfo.cs 2.12 KB 2012/1/17 16:22:58
77 51aspx_WPFallahfan72053603-f2ac-4028-a88f-2d23781d0826\Properties\Resources.Designer.cs 2.78 KB 2012/1/17 16:22:58
78 51aspx_WPFallahfan72053603-f2ac-4028-a88f-2d23781d0826\Properties\Resources.resx 5.48 KB 2012/1/17 16:22:58
79 51aspx_WPFallahfan72053603-f2ac-4028-a88f-2d23781d0826\Properties\Settings.Designer.cs 1.08 KB 2012/1/17 16:22:58
80 51aspx_WPFallahfan72053603-f2ac-4028-a88f-2d23781d0826\Properties\Settings.settings 201 Bytes 2012/1/17 16:22:58
81 51aspx_WPFallahfan72053603-f2ac-4028-a88f-2d23781d0826\UpgradeLog.XML 949 Bytes 2012/1/17 16:22:52
82 51aspx_WPFallahfan72053603-f2ac-4028-a88f-2d23781d0826\Web.config 7.96 KB 2012/1/17 16:22:52
83 51aspx_WPFallahfan72053603-f2ac-4028-a88f-2d23781d0826\Window1.xaml 10.08 KB 2012/1/17 16:22:52
84 51aspx_WPFallahfan72053603-f2ac-4028-a88f-2d23781d0826\Window1.xaml.cs 5.68 KB 2012/1/17 16:22:52
85 51aspx_WPFallahfan72053603-f2ac-4028-a88f-2d23781d0826\WpfCJ.csproj 7.73 KB 2012/1/17 16:22:52
86 51aspx_WPFallahfan72053603-f2ac-4028-a88f-2d23781d0826\WpfCJ.csproj.user 452 Bytes 2012/1/17 16:22:52
87 51aspx_WPFallahfan72053603-f2ac-4028-a88f-2d23781d0826\WpfCJ.sln 899 Bytes 2012/1/17 16:22:52
88 51aspx_WPFallahfan72053603-f2ac-4028-a88f-2d23781d0826\WpfCJ.suo 44 KB 2012/1/17 16:22:52

请留下有营养的评论,广告灌水一律拉黑处理,谢谢合作!